Location: Holyhead Bay
(53.3667°N, 4.6667°W)
Time: 21:51:37
(UTC+00:00)

Cosmos 1408 Rocket - Pass Details

Date: 20 April 2021
Orbit: 601 x 631 km, 82.6° (Epoch: 16 May)

Event Time Altitude Azimuth Distance (km) Brightness Sun altitude
Rises 22:31:23 0° 344° (NNW) 2,867 8.4 -21.0°
Reaches altitude 10° 22:33:39 10° 339° (NNW) 1,960 7.3 -21.1°
Maximum altitude 22:37:47 46° 267° (W) 823 4.3 -21.4°
Enters shadow 22:39:02 35° 222° (SW) 980 4.3 -21.5°
